Location: LDNL
(36.4545°S, 141.6685°E)
Time: 04:52:40
(UTC+11:00)

Vanguard 2 - Pass Details

Date: 11 August 2022
Orbit: 552 x 2934 km, 32.9° (Epoch: 06 October)

Event Time Altitude Azimuth Distance (km) Brightness Sun altitude
Rises 18:54:42 0° 287° (WNW) 6,624 14.3 -12.2°
Reaches altitude 10° 18:59:28 10° 289° (WNW) 5,416 13.3 -13.1°
Maximum altitude 19:14:38 71° 8° (N) 2,038 9.6 -16.1°
Enters shadow 19:21:29 23° 86° (E) 2,811 9.8 -17.5°
Drops below altitude 10° 19:23:51 10° 89° (E) 3,451 - -18.0°
Sets 19:26:14 0° 91° (E) 4,168 - -18.4°
